TimeEET,TemperatureF,Dew PointF,Humidity,Sea Level PressureIn,VisibilityMPH,Wind Direction,Wind SpeedMPH,Gust SpeedMPH,PrecipitationIn,Events,Conditions,WindDirDegrees,DateUTC
12:50 AM,30.2,26.6,86,30.12,6.2,Variable,1.2,-,N/A,,Mostly Cloudy,0,2013-02-21 22:50:00
1:50 AM,28.4,24.8,86,30.15,6.2,Calm,Calm,-,N/A,,Mostly Cloudy,0,2013-02-21 23:50:00
2:00 AM,28,25,84,,6,Calm,Calm,,,,Partly Cloudy,,2013-02-22 00:00:00
2:50 AM,28.4,24.8,86,30.12,6.2,Calm,Calm,-,N/A,,Mostly Cloudy,0,2013-02-22 00:50:00
3:50 AM,26.6,24.8,93,30.12,6.2,Variable,1.2,-,N/A,,Mostly Cloudy,0,2013-02-22 01:50:00
4:50 AM,28.4,26.6,93,30.12,6.2,NNE,1.2,-,N/A,,Mostly Cloudy,20,2013-02-22 02:50:00
5:50 AM,26.6,24.8,93,30.12,6.2,Calm,Calm,-,N/A,,Mostly Cloudy,0,2013-02-22 03:50:00
6:50 AM,28.4,26.6,93,30.15,6.2,Calm,Calm,-,N/A,,Mostly Cloudy,0,2013-02-22 04:50:00
7:50 AM,30.2,28.4,93,30.15,6.2,SSE,2.3,-,N/A,,Mostly Cloudy,160,2013-02-22 05:50:00
8:00 AM,31,28,83,,9,SSE,2.3,,,,Partly Cloudy,160,2013-02-22 06:00:00
8:50 AM,33.8,28.4,81,30.18,6.2,Calm,Calm,-,N/A,,Mostly Cloudy,0,2013-02-22 06:50:00
9:50 AM,37.4,26.6,65,30.15,6.2,Variable,2.3,-,N/A,,Mostly Cloudy,0,2013-02-22 07:50:00
10:50 AM,37.4,26.6,65,30.09,6.2,Calm,Calm,-,N/A,,Mostly Cloudy,0,2013-02-22 08:50:00
11:50 AM,41.0,24.8,53,30.06,6.2,ENE,3.5,-,N/A,,Mostly Cloudy,70,2013-02-22 09:50:00
12:50 PM,42.8,23.0,46,30.06,6.2,West,6.9,-,N/A,,Mostly Cloudy,280,2013-02-22 10:50:00
1:50 PM,42.8,21.2,42,30.04,6.2,SW,5.8,-,N/A,,Mostly Cloudy,230,2013-02-22 11:50:00
2:00 PM,43,21,28,,6,SW,5.8,,,,Partly Cloudy,230,2013-02-22 12:00:00
2:50 PM,44.6,19.4,37,29.98,6.2,Variable,2.3,-,N/A,,Mostly Cloudy,0,2013-02-22 12:50:00
3:50 PM,44.6,19.4,37,29.98,6.2,Variable,5.8,-,N/A,,Mostly Cloudy,0,2013-02-22 13:50:00
4:50 PM,44.6,21.2,39,29.98,6.2,South,5.8,-,N/A,,Mostly Cloudy,170,2013-02-22 14:50:00
5:50 PM,42.8,19.4,39,29.98,6.2,SE,16.1,-,N/A,,Mostly Cloudy,140,2013-02-22 15:50:00
6:50 PM,42.8,19.4,39,29.98,6.2,SE,16.1,-,N/A,,Mostly Cloudy,140,2013-02-22 16:50:00
7:50 PM,41.0,21.2,45,29.98,6.2,SE,19.6,-,N/A,,Mostly Cloudy,140,2013-02-22 17:50:00
8:00 PM,42,22,31,,12,SE,19.6,,,,Partly Cloudy,140,2013-02-22 18:00:00
8:50 PM,41.0,21.2,45,29.95,6.2,SE,16.1,-,N/A,,Mostly Cloudy,130,2013-02-22 18:50:00
9:50 PM,42.8,23.0,46,29.95,6.2,SE,16.1,-,N/A,,Mostly Cloudy,140,2013-02-22 19:50:00
10:50 PM,42.8,23.0,46,29.95,6.2,SSE,15.0,-,N/A,,Mostly Cloudy,150,2013-02-22 20:50:00
11:50 PM,41.0,26.6,57,29.92,6.2,SE,19.6,-,N/A,,Mostly Cloudy,140,2013-02-22 21:50:00